Year,Month,Day,Hour,Minute,Value (Times are PST for temperature in C)
2016,04,08,00,00,9.30
2016,04,08,00,01,9.30
2016,04,08,00,02,9.30
2016,04,08,00,03,9.30
2016,04,08,00,04,9.30
2016,04,08,00,05,9.30
2016,04,08,00,06,9.30
2016,04,08,00,07,9.30
2016,04,08,00,08,9.30
2016,04,08,00,09,9.30
2016,04,08,00,10,9.30
2016,04,08,00,11,9.20
2016,04,08,00,12,9.20
2016,04,08,00,13,9.20
2016,04,08,00,14,9.20
2016,04,08,00,15,9.20
2016,04,08,00,16,9.20
2016,04,08,00,17,9.20
2016,04,08,00,18,9.20
2016,04,08,00,19,9.20
2016,04,08,00,20,9.20
2016,04,08,00,21,9.20
2016,04,08,00,22,9.20
2016,04,08,00,23,9.20
2016,04,08,00,24,9.30
2016,04,08,00,25,9.30
2016,04,08,00,26,9.30
2016,04,08,00,27,9.30
2016,04,08,00,28,9.30
2016,04,08,00,29,9.30
2016,04,08,00,30,9.30
2016,04,08,00,31,9.30
2016,04,08,00,32,9.30
2016,04,08,00,33,9.30
2016,04,08,00,34,9.30
2016,04,08,00,35,9.30
2016,04,08,00,36,9.30
2016,04,08,00,37,9.20
2016,04,08,00,38,9.20
2016,04,08,00,39,9.20
2016,04,08,00,40,9.20
2016,04,08,00,41,9.20
2016,04,08,00,42,9.20
2016,04,08,00,43,9.20
2016,04,08,00,44,9.20
2016,04,08,00,45,9.20
2016,04,08,00,46,9.30
2016,04,08,00,47,9.30
2016,04,08,00,48,9.30
2016,04,08,00,49,9.30
2016,04,08,00,50,9.30
2016,04,08,00,51,9.30
2016,04,08,00,52,9.30
2016,04,08,00,53,9.20
2016,04,08,00,54,9.20
2016,04,08,00,55,9.20
2016,04,08,00,56,9.20
2016,04,08,00,57,9.20
2016,04,08,00,58,9.20
2016,04,08,00,59,9.20
2016,04,08,01,00,9.20
2016,04,08,01,01,9.20
2016,04,08,01,02,9.20
2016,04,08,01,03,9.20
2016,04,08,01,04,9.20
2016,04,08,01,05,9.20
2016,04,08,01,06,9.10
2016,04,08,01,07,9.10
2016,04,08,01,08,9.10
2016,04,08,01,09,9.10
2016,04,08,01,10,9.10
2016,04,08,01,11,9.00
2016,04,08,01,12,9.00
2016,04,08,01,13,8.90
2016,04,08,01,14,8.90
2016,04,08,01,15,8.80
2016,04,08,01,16,8.80
2016,04,08,01,17,8.80
2016,04,08,01,18,8.80
2016,04,08,01,19,8.70
2016,04,08,01,20,8.70
2016,04,08,01,21,8.70
2016,04,08,01,22,8.70
2016,04,08,01,23,8.70
2016,04,08,01,24,8.60
2016,04,08,01,25,8.60
2016,04,08,01,26,8.60
2016,04,08,01,27,8.60
2016,04,08,01,28,8.60
2016,04,08,01,29,8.60
2016,04,08,01,30,8.60
2016,04,08,01,31,8.60
2016,04,08,01,32,8.60
2016,04,08,01,33,8.60
2016,04,08,01,34,8.60
2016,04,08,01,35,8.50
2016,04,08,01,36,8.50
2016,04,08,01,37,8.50
2016,04,08,01,38,8.50
2016,04,08,01,39,8.40
2016,04,08,01,40,8.40
2016,04,08,01,41,8.40
2016,04,08,01,42,8.40
2016,04,08,01,43,8.40
2016,04,08,01,44,8.40
2016,04,08,01,45,8.40
2016,04,08,01,46,8.40
2016,04,08,01,47,8.40
2016,04,08,01,48,8.40
2016,04,08,01,49,8.40
2016,04,08,01,50,8.40
2016,04,08,01,51,8.40
2016,04,08,01,52,8.40
2016,04,08,01,53,8.40
2016,04,08,01,54,8.40
2016,04,08,01,55,8.40
2016,04,08,01,56,8.40
2016,04,08,01,57,8.30
2016,04,08,01,58,8.30
2016,04,08,01,59,8.30
2016,04,08,02,00,8.30
2016,04,08,02,01,8.30
2016,04,08,02,02,8.30
2016,04,08,02,03,8.30
2016,04,08,02,04,8.30
2016,04,08,02,05,8.30
2016,04,08,02,06,8.30
2016,04,08,02,07,8.30
2016,04,08,02,08,8.30
2016,04,08,02,09,8.30
2016,04,08,02,10,8.20
2016,04,08,02,11,8.20
2016,04,08,02,12,8.20
2016,04,08,02,13,8.20
2016,04,08,02,14,8.20
2016,04,08,02,15,8.30
2016,04,08,02,16,8.30
2016,04,08,02,17,8.40
2016,04,08,02,18,8.40
2016,04,08,02,19,8.40
2016,04,08,02,20,8.50
2016,04,08,02,21,8.50
2016,04,08,02,22,8.50
2016,04,08,02,23,8.60
2016,04,08,02,24,8.60
2016,04,08,02,25,8.60
2016,04,08,02,26,8.60
2016,04,08,02,27,8.60
2016,04,08,02,28,8.60
2016,04,08,02,29,8.60
2016,04,08,02,30,8.60
2016,04,08,02,31,8.60
2016,04,08,02,32,8.70
2016,04,08,02,33,8.70
2016,04,08,02,34,8.70
2016,04,08,02,35,8.70
2016,04,08,02,36,8.70
2016,04,08,02,37,8.70
2016,04,08,02,38,8.70
2016,04,08,02,39,8.70
2016,04,08,02,40,8.70
2016,04,08,02,41,8.70
2016,04,08,02,42,8.70
2016,04,08,02,43,8.60
2016,04,08,02,44,8.60
2016,04,08,02,45,8.60
2016,04,08,02,46,8.60
2016,04,08,02,47,8.60
2016,04,08,02,48,8.50
2016,04,08,02,49,8.50
2016,04,08,02,50,8.50
2016,04,08,02,51,8.50
2016,04,08,02,52,8.50
2016,04,08,02,53,8.50
2016,04,08,02,54,8.60
2016,04,08,02,55,8.60
2016,04,08,02,56,8.60
2016,04,08,02,57,8.70
2016,04,08,02,58,8.70
2016,04,08,02,59,8.80
2016,04,08,03,00,8.80
2016,04,08,03,01,8.80
2016,04,08,03,02,8.90
2016,04,08,03,03,8.90
2016,04,08,03,04,8.90
2016,04,08,03,05,8.90
2016,04,08,03,06,8.90
2016,04,08,03,07,8.90
2016,04,08,03,08,8.90
2016,04,08,03,09,8.90
2016,04,08,03,10,8.80
2016,04,08,03,11,8.80
2016,04,08,03,12,8.80
2016,04,08,03,13,8.70
2016,04,08,03,14,8.70
2016,04,08,03,15,8.70
2016,04,08,03,16,8.60
2016,04,08,03,17,8.60
2016,04,08,03,18,8.60
2016,04,08,03,19,8.50
2016,04,08,03,20,8.40
2016,04,08,03,21,8.40
2016,04,08,03,22,8.40
2016,04,08,03,23,8.40
2016,04,08,03,24,8.40
2016,04,08,03,25,8.40
2016,04,08,03,26,8.50
2016,04,08,03,27,8.50
2016,04,08,03,28,8.50
2016,04,08,03,29,8.60
2016,04,08,03,30,8.60
2016,04,08,03,31,8.60
2016,04,08,03,32,8.60
2016,04,08,03,33,8.60
2016,04,08,03,34,8.50
2016,04,08,03,35,8.50
2016,04,08,03,36,8.50
2016,04,08,03,37,8.50
2016,04,08,03,38,8.40
2016,04,08,03,39,8.40
2016,04,08,03,40,8.40
2016,04,08,03,41,8.40
2016,04,08,03,42,8.40
2016,04,08,03,43,8.40
2016,04,08,03,44,8.40
2016,04,08,03,45,8.40
2016,04,08,03,46,8.40
2016,04,08,03,47,8.40
2016,04,08,03,48,8.40
2016,04,08,03,49,8.40
2016,04,08,03,50,8.40
2016,04,08,03,51,8.40
2016,04,08,03,52,8.40
2016,04,08,03,53,8.40
2016,04,08,03,54,8.40
2016,04,08,03,55,8.30
2016,04,08,03,56,8.30
2016,04,08,03,57,8.30
2016,04,08,03,58,8.20
2016,04,08,03,59,8.20
2016,04,08,04,00,8.20
2016,04,08,04,01,8.20
2016,04,08,04,02,8.20
2016,04,08,04,03,8.20
2016,04,08,04,04,8.20
2016,04,08,04,05,8.20
2016,04,08,04,06,8.10
2016,04,08,04,07,8.10
2016,04,08,04,08,8.10
2016,04,08,04,09,8.10
2016,04,08,04,10,8.10
2016,04,08,04,11,8.10
2016,04,08,04,12,8.10
2016,04,08,04,13,8.00
2016,04,08,04,14,8.00
2016,04,08,04,15,7.90
2016,04,08,04,16,7.90
2016,04,08,04,17,7.90
2016,04,08,04,18,7.90
2016,04,08,04,19,7.80
2016,04,08,04,20,7.80
2016,04,08,04,21,7.80
2016,04,08,04,22,7.80
2016,04,08,04,23,7.70
2016,04,08,04,24,7.70
2016,04,08,04,25,7.70
2016,04,08,04,26,7.70
2016,04,08,04,27,7.70
2016,04,08,04,28,7.70
2016,04,08,04,29,7.70
2016,04,08,04,30,7.80
2016,04,08,04,31,7.80
2016,04,08,04,32,7.80
2016,04,08,04,33,7.80
2016,04,08,04,34,7.80
2016,04,08,04,35,7.80
2016,04,08,04,36,7.80
2016,04,08,04,37,7.70
2016,04,08,04,38,7.70
2016,04,08,04,39,7.70
2016,04,08,04,40,7.70
2016,04,08,04,41,7.60
2016,04,08,04,42,7.60
2016,04,08,04,43,7.60
2016,04,08,04,44,7.50
2016,04,08,04,45,7.50
2016,04,08,04,46,7.50
2016,04,08,04,47,7.50
2016,04,08,04,48,7.50
2016,04,08,04,49,7.50
2016,04,08,04,50,7.50
2016,04,08,04,51,7.50
2016,04,08,04,52,7.40
2016,04,08,04,53,7.40
2016,04,08,04,54,7.40
2016,04,08,04,55,7.40
2016,04,08,04,56,7.40
2016,04,08,04,57,7.40
2016,04,08,04,58,7.40
2016,04,08,04,59,7.40
2016,04,08,05,00,7.40
2016,04,08,05,01,7.40
2016,04,08,05,02,7.40
2016,04,08,05,03,7.40
2016,04,08,05,04,7.40
2016,04,08,05,05,7.40
2016,04,08,05,06,7.30
2016,04,08,05,07,7.30
2016,04,08,05,08,7.30
2016,04,08,05,09,7.30
2016,04,08,05,10,7.30
2016,04,08,05,11,7.30
2016,04,08,05,12,7.30
2016,04,08,05,13,7.30
2016,04,08,05,14,7.30
2016,04,08,05,15,7.30
2016,04,08,05,16,7.50
2016,04,08,05,17,7.50
2016,04,08,05,18,7.60
2016,04,08,05,19,7.60
2016,04,08,05,20,7.60
2016,04,08,05,21,7.70
2016,04,08,05,22,7.70
2016,04,08,05,23,7.70
2016,04,08,05,24,7.70
2016,04,08,05,25,7.80
2016,04,08,05,26,7.80
2016,04,08,05,27,7.80
2016,04,08,05,28,7.80
2016,04,08,05,29,7.90
2016,04,08,05,30,7.90
2016,04,08,05,31,7.90
2016,04,08,05,32,7.90
2016,04,08,05,33,7.90
2016,04,08,05,34,7.90
2016,04,08,05,35,7.90
2016,04,08,05,36,7.90
2016,04,08,05,37,7.90
2016,04,08,05,38,7.90
2016,04,08,05,39,7.90
2016,04,08,05,40,7.90
2016,04,08,05,41,7.80
2016,04,08,05,42,7.80
2016,04,08,05,43,7.80
2016,04,08,05,44,7.80
2016,04,08,05,45,7.70
2016,04,08,05,46,7.70
2016,04,08,05,47,7.70
2016,04,08,05,48,7.60
2016,04,08,05,49,7.60
2016,04,08,05,50,7.60
2016,04,08,05,51,7.60
2016,04,08,05,52,7.60
2016,04,08,05,53,7.60
2016,04,08,05,54,7.70
2016,04,08,05,55,7.70
2016,04,08,05,56,7.70
2016,04,08,05,57,7.80
2016,04,08,05,58,7.80
2016,04,08,05,59,7.90
2016,04,08,06,00,7.90
2016,04,08,06,01,7.90
2016,04,08,06,02,7.90
2016,04,08,06,03,7.90
2016,04,08,06,04,7.90
2016,04,08,06,05,7.90
2016,04,08,06,06,7.90
2016,04,08,06,07,7.90
2016,04,08,06,08,7.90
2016,04,08,06,09,7.90
2016,04,08,06,10,7.90
2016,04,08,06,11,7.90
2016,04,08,06,12,7.90
2016,04,08,06,13,7.80
2016,04,08,06,14,7.80
2016,04,08,06,15,7.80
2016,04,08,06,16,7.80
2016,04,08,06,17,7.80
2016,04,08,06,18,7.80
2016,04,08,06,19,7.70
2016,04,08,06,20,7.70
2016,04,08,06,21,7.70
2016,04,08,06,22,7.70
2016,04,08,06,23,7.70
2016,04,08,06,24,7.70
2016,04,08,06,25,7.70
2016,04,08,06,26,7.70
2016,04,08,06,27,7.70
2016,04,08,06,28,7.70
2016,04,08,06,29,7.60
2016,04,08,06,30,7.60
2016,04,08,06,31,7.60
2016,04,08,06,32,7.60
2016,04,08,06,33,7.60
2016,04,08,06,34,7.60
2016,04,08,06,35,7.50
2016,04,08,06,36,7.50
2016,04,08,06,37,7.50
2016,04,08,06,38,7.50
2016,04,08,06,39,7.50
2016,04,08,06,40,7.50
2016,04,08,06,41,7.40
2016,04,08,06,42,7.40
2016,04,08,06,43,7.40
2016,04,08,06,44,7.40
2016,04,08,06,45,7.40
2016,04,08,06,46,7.40
2016,04,08,06,47,7.40
2016,04,08,06,48,7.40
2016,04,08,06,49,7.40
2016,04,08,06,50,7.40
2016,04,08,06,51,7.40
2016,04,08,06,52,7.40
2016,04,08,06,53,7.40
2016,04,08,06,54,7.40
2016,04,08,06,55,7.40
2016,04,08,06,56,7.40
2016,04,08,06,57,7.40
2016,04,08,06,58,7.40
2016,04,08,06,59,7.50
2016,04,08,07,00,7.50
2016,04,08,07,01,7.60
2016,04,08,07,02,7.60
2016,04,08,07,03,7.70
2016,04,08,07,04,7.70
2016,04,08,07,05,7.70
2016,04,08,07,06,7.80
2016,04,08,07,07,7.80
2016,04,08,07,08,7.80
2016,04,08,07,09,7.80
2016,04,08,07,10,7.80
2016,04,08,07,11,7.80
2016,04,08,07,12,7.80
2016,04,08,07,13,7.80
2016,04,08,07,14,7.80
2016,04,08,07,15,7.80
2016,04,08,07,16,7.80
2016,04,08,07,17,7.90
2016,04,08,07,18,7.90
2016,04,08,07,19,7.90
2016,04,08,07,20,8.00
2016,04,08,07,21,8.10
2016,04,08,07,22,8.10
2016,04,08,07,23,8.20
2016,04,08,07,24,8.20
2016,04,08,07,25,8.20
2016,04,08,07,26,8.30
2016,04,08,07,27,8.30
2016,04,08,07,28,8.40
2016,04,08,07,29,8.50
2016,04,08,07,30,8.50
2016,04,08,07,31,8.60
2016,04,08,07,32,8.60
2016,04,08,07,33,8.70
2016,04,08,07,34,8.70
2016,04,08,07,35,8.80
2016,04,08,07,36,8.80
2016,04,08,07,37,8.90
2016,04,08,07,38,9.00
2016,04,08,07,39,9.00
2016,04,08,07,40,9.10
2016,04,08,07,41,9.20
2016,04,08,07,42,9.30
2016,04,08,07,43,9.40
2016,04,08,07,44,9.50
2016,04,08,07,45,9.60
2016,04,08,07,46,9.70
2016,04,08,07,47,9.80
2016,04,08,07,48,9.80
2016,04,08,07,49,9.90
2016,04,08,07,50,10.00
2016,04,08,07,51,10.10
2016,04,08,07,52,10.10
2016,04,08,07,53,10.20
2016,04,08,07,54,10.30
2016,04,08,07,55,10.30
2016,04,08,07,56,10.40
2016,04,08,07,57,10.40
2016,04,08,07,58,10.40
2016,04,08,07,59,10.40
2016,04,08,08,00,10.40
2016,04,08,08,01,10.40
2016,04,08,08,02,10.40
2016,04,08,08,03,10.40
2016,04,08,08,04,10.50
2016,04,08,08,05,10.50
2016,04,08,08,06,10.60
2016,04,08,08,07,10.60
2016,04,08,08,08,10.60
2016,04,08,08,09,10.60
2016,04,08,08,10,10.70
2016,04,08,08,11,10.70
2016,04,08,08,12,10.70
2016,04,08,08,13,10.80
2016,04,08,08,14,10.80
2016,04,08,08,15,11.00
2016,04,08,08,16,11.00
2016,04,08,08,17,11.10
2016,04,08,08,18,11.20
2016,04,08,08,19,11.30
2016,04,08,08,20,11.30
2016,04,08,08,21,11.40
2016,04,08,08,22,11.50
2016,04,08,08,23,11.60
2016,04,08,08,24,11.70
2016,04,08,08,25,11.80
2016,04,08,08,26,12.00
2016,04,08,08,27,12.20
2016,04,08,08,28,12.40
2016,04,08,08,29,12.50
2016,04,08,08,30,12.70
2016,04,08,08,31,12.80
2016,04,08,08,32,13.00
2016,04,08,08,33,13.10
2016,04,08,08,34,13.20
2016,04,08,08,35,13.30
2016,04,08,08,36,13.30
2016,04,08,08,37,13.40
2016,04,08,08,38,13.40
2016,04,08,08,39,13.50
2016,04,08,08,40,13.60
2016,04,08,08,41,13.60
2016,04,08,08,42,13.70
2016,04,08,08,43,13.80
2016,04,08,08,44,13.80
2016,04,08,08,45,13.90
2016,04,08,08,46,13.90
2016,04,08,08,47,13.90
2016,04,08,08,48,14.00
2016,04,08,08,49,14.00
2016,04,08,08,50,14.10
2016,04,08,08,51,14.10
2016,04,08,08,52,14.10
2016,04,08,08,53,14.10
2016,04,08,08,54,14.20
2016,04,08,08,55,14.20
2016,04,08,08,56,14.30
2016,04,08,08,57,14.30
2016,04,08,08,58,14.30
2016,04,08,08,59,14.40
2016,04,08,09,00,14.40
2016,04,08,09,01,14.50
2016,04,08,09,02,14.50
2016,04,08,09,03,14.60
2016,04,08,09,04,14.60
2016,04,08,09,05,14.70
2016,04,08,09,06,14.70
2016,04,08,09,07,14.80
2016,04,08,09,08,14.90
2016,04,08,09,09,14.90
2016,04,08,09,10,15.00
2016,04,08,09,11,15.00
2016,04,08,09,12,15.10
2016,04,08,09,13,15.10
2016,04,08,09,14,15.10
2016,04,08,09,15,15.10
2016,04,08,09,16,15.20
2016,04,08,09,17,15.20
2016,04,08,09,18,15.20
2016,04,08,09,19,15.20
2016,04,08,09,20,15.20
2016,04,08,09,21,15.20
2016,04,08,09,22,15.20
2016,04,08,09,23,15.20
2016,04,08,09,24,15.20
2016,04,08,09,25,15.20
2016,04,08,09,26,15.20
2016,04,08,09,27,15.20
2016,04,08,09,28,15.20
2016,04,08,09,29,15.20
2016,04,08,09,30,15.20
2016,04,08,09,31,15.30
2016,04,08,09,32,15.30
2016,04,08,09,33,15.30
2016,04,08,09,34,15.40
2016,04,08,09,35,15.40
2016,04,08,09,36,15.40
2016,04,08,09,37,15.40
2016,04,08,09,38,15.40
2016,04,08,09,39,15.50
2016,04,08,09,40,15.50
2016,04,08,09,41,15.50
2016,04,08,09,42,15.50
2016,04,08,09,43,15.60
2016,04,08,09,44,15.60
2016,04,08,09,45,15.60
2016,04,08,09,46,15.60
2016,04,08,09,47,15.60
2016,04,08,09,48,15.60
2016,04,08,09,49,15.60
2016,04,08,09,50,15.60
2016,04,08,09,51,15.60
2016,04,08,09,52,15.60
2016,04,08,09,53,15.70
2016,04,08,09,54,15.70
2016,04,08,09,55,15.80
2016,04,08,09,56,15.90
2016,04,08,09,57,15.90
2016,04,08,09,58,16.00
2016,04,08,09,59,16.10
2016,04,08,10,00,16.10
2016,04,08,10,01,16.20
2016,04,08,10,02,16.20
2016,04,08,10,03,16.30
2016,04,08,10,04,16.40
2016,04,08,10,05,16.40
2016,04,08,10,06,16.40
2016,04,08,10,07,16.40
2016,04,08,10,08,16.50
2016,04,08,10,09,16.60
2016,04,08,10,10,16.60
2016,04,08,10,11,16.60
2016,04,08,10,12,16.60
2016,04,08,10,13,16.70
2016,04,08,10,14,16.70
2016,04,08,10,15,16.70
2016,04,08,10,16,16.70
2016,04,08,10,17,16.70
2016,04,08,10,18,16.70
2016,04,08,10,19,16.70
2016,04,08,10,20,16.70
2016,04,08,10,21,16.80
2016,04,08,10,22,16.80
2016,04,08,10,23,16.80
2016,04,08,10,24,16.80
2016,04,08,10,25,16.90
2016,04,08,10,26,16.90
2016,04,08,10,27,16.90
2016,04,08,10,28,16.90
2016,04,08,10,29,16.90
2016,04,08,10,30,16.90
2016,04,08,10,31,16.90
2016,04,08,10,32,17.00
2016,04,08,10,33,17.00
2016,04,08,10,34,17.10
2016,04,08,10,35,17.10
2016,04,08,10,36,17.20
2016,04,08,10,37,17.20
2016,04,08,10,38,17.20
2016,04,08,10,39,17.30
2016,04,08,10,40,17.30
2016,04,08,10,41,17.40
2016,04,08,10,42,17.40
2016,04,08,10,43,17.40
2016,04,08,10,44,17.50
2016,04,08,10,45,17.50
2016,04,08,10,46,17.50
2016,04,08,10,47,17.50
2016,04,08,10,48,17.50
2016,04,08,10,49,17.50
2016,04,08,10,50,17.60
2016,04,08,10,51,17.60
2016,04,08,10,52,17.60
2016,04,08,10,53,17.60
2016,04,08,10,54,17.60
2016,04,08,10,55,17.60
2016,04,08,10,56,17.60
2016,04,08,10,57,17.70
2016,04,08,10,58,17.70
2016,04,08,10,59,17.80
2016,04,08,11,00,17.80
2016,04,08,11,01,17.80
2016,04,08,11,02,17.90
2016,04,08,11,03,17.90
2016,04,08,11,04,18.00
2016,04,08,11,05,18.00
2016,04,08,11,06,18.00
2016,04,08,11,07,18.10
2016,04,08,11,08,18.10
2016,04,08,11,09,18.10
2016,04,08,11,10,18.10
2016,04,08,11,11,18.10
2016,04,08,11,12,18.20
2016,04,08,11,13,18.20
2016,04,08,11,14,18.20
2016,04,08,11,15,18.20
2016,04,08,11,16,18.20
2016,04,08,11,17,18.20
2016,04,08,11,18,18.10
2016,04,08,11,19,18.10
2016,04,08,11,20,18.00
2016,04,08,11,21,18.00
2016,04,08,11,22,18.00
2016,04,08,11,23,18.00
2016,04,08,11,24,18.00
2016,04,08,11,25,18.00
2016,04,08,11,26,18.00
2016,04,08,11,27,18.10
2016,04,08,11,28,18.10
2016,04,08,11,29,18.10
2016,04,08,11,30,18.10
2016,04,08,11,31,18.00
2016,04,08,11,32,18.00
2016,04,08,11,33,17.90
2016,04,08,11,34,17.80
2016,04,08,11,35,17.80
2016,04,08,11,36,17.70
2016,04,08,11,37,17.70
2016,04,08,11,38,17.70
2016,04,08,11,39,17.70
2016,04,08,11,40,17.70
2016,04,08,11,41,17.70
2016,04,08,11,42,17.80
2016,04,08,11,43,17.80
2016,04,08,11,44,17.80
2016,04,08,11,45,17.90
2016,04,08,11,46,17.90
2016,04,08,11,47,18.00
2016,04,08,11,48,18.00
2016,04,08,11,49,18.10
2016,04,08,11,50,18.10
2016,04,08,11,51,18.10
2016,04,08,11,52,18.10
2016,04,08,11,53,18.20
2016,04,08,11,54,18.20
2016,04,08,11,55,18.20
2016,04,08,11,56,18.20
2016,04,08,11,57,18.20
2016,04,08,11,58,18.20
2016,04,08,11,59,18.20
2016,04,08,12,00,18.30
2016,04,08,12,01,18.30
2016,04,08,12,02,18.30
2016,04,08,12,03,18.40
2016,04,08,12,04,18.40
2016,04,08,12,05,18.50
2016,04,08,12,06,18.50
2016,04,08,12,07,18.60
2016,04,08,12,08,18.60
2016,04,08,12,09,18.70
2016,04,08,12,10,18.70
2016,04,08,12,11,18.70
2016,04,08,12,12,18.60
2016,04,08,12,13,18.50
2016,04,08,12,14,18.40
2016,04,08,12,15,18.30
2016,04,08,12,16,18.30
2016,04,08,12,17,18.30
2016,04,08,12,18,18.30
2016,04,08,12,19,18.20
2016,04,08,12,20,18.20
2016,04,08,12,21,18.20
2016,04,08,12,22,18.30
2016,04,08,12,23,18.30
2016,04,08,12,24,18.30
2016,04,08,12,25,18.30
2016,04,08,12,26,18.40
2016,04,08,12,27,18.40
2016,04,08,12,28,18.30
2016,04,08,12,29,18.30
2016,04,08,12,30,18.30
2016,04,08,12,31,18.20
2016,04,08,12,32,18.20
2016,04,08,12,33,18.20
2016,04,08,12,34,18.10
2016,04,08,12,35,18.00
2016,04,08,12,36,18.00
2016,04,08,12,37,17.90
2016,04,08,12,38,17.80
2016,04,08,12,39,17.60
2016,04,08,12,40,17.50
2016,04,08,12,41,17.40
2016,04,08,12,42,17.40
2016,04,08,12,43,17.30
2016,04,08,12,44,17.30
2016,04,08,12,45,17.30
2016,04,08,12,46,17.40
2016,04,08,12,47,17.40
2016,04,08,12,48,17.50
2016,04,08,12,49,17.60
2016,04,08,12,50,17.60
2016,04,08,12,51,17.70
2016,04,08,12,52,17.70
2016,04,08,12,53,17.80
2016,04,08,12,54,17.80
2016,04,08,12,55,17.80
2016,04,08,12,56,17.80
2016,04,08,12,57,17.80
2016,04,08,12,58,17.80
2016,04,08,12,59,17.80
2016,04,08,13,00,17.90
2016,04,08,13,01,18.00
2016,04,08,13,02,18.00
2016,04,08,13,03,18.10
2016,04,08,13,04,18.10
2016,04,08,13,05,18.10
2016,04,08,13,06,18.20
2016,04,08,13,07,18.30
2016,04,08,13,08,18.30
2016,04,08,13,09,18.40
2016,04,08,13,10,18.40
2016,04,08,13,11,18.40
2016,04,08,13,12,18.40
2016,04,08,13,13,18.50
2016,04,08,13,14,18.50
2016,04,08,13,15,18.60
2016,04,08,13,16,18.70
2016,04,08,13,17,18.70
2016,04,08,13,18,18.80
2016,04,08,13,19,18.80
2016,04,08,13,20,18.80
2016,04,08,13,21,18.80
2016,04,08,13,22,18.80
2016,04,08,13,23,18.80
2016,04,08,13,24,18.90
2016,04,08,13,25,18.90
2016,04,08,13,26,18.90
2016,04,08,13,27,18.90
2016,04,08,13,28,19.00
2016,04,08,13,29,18.90
2016,04,08,13,30,18.90
2016,04,08,13,31,19.00
2016,04,08,13,32,19.00
2016,04,08,13,33,19.00
2016,04,08,13,34,19.00
2016,04,08,13,35,19.10
2016,04,08,13,36,19.10
2016,04,08,13,37,19.10
2016,04,08,13,38,19.10
2016,04,08,13,39,19.10
2016,04,08,13,40,19.20
2016,04,08,13,41,19.20
2016,04,08,13,42,19.10
2016,04,08,13,43,19.10
2016,04,08,13,44,19.10
2016,04,08,13,45,19.00
2016,04,08,13,46,19.00
2016,04,08,13,47,19.00
2016,04,08,13,48,19.00
2016,04,08,13,49,19.00
2016,04,08,13,50,19.00
2016,04,08,13,51,19.00
2016,04,08,13,52,19.00
2016,04,08,13,53,19.10
2016,04,08,13,54,19.10
2016,04,08,13,55,19.10
2016,04,08,13,56,19.10
2016,04,08,13,57,19.10
2016,04,08,13,58,19.10
2016,04,08,13,59,19.00
2016,04,08,14,00,19.00
2016,04,08,14,01,18.90
2016,04,08,14,02,18.90
2016,04,08,14,03,18.80
2016,04,08,14,04,18.80
2016,04,08,14,05,18.70
2016,04,08,14,06,18.60
2016,04,08,14,07,18.60
2016,04,08,14,08,18.60
2016,04,08,14,09,18.60
2016,04,08,14,10,18.60
2016,04,08,14,11,18.60
2016,04,08,14,12,18.70
2016,04,08,14,13,18.70
2016,04,08,14,14,18.70
2016,04,08,14,15,18.70
2016,04,08,14,16,18.80
2016,04,08,14,17,18.80
2016,04,08,14,18,18.80
2016,04,08,14,19,18.90
2016,04,08,14,20,18.90
2016,04,08,14,21,19.00
2016,04,08,14,22,19.10
2016,04,08,14,23,19.10
2016,04,08,14,24,19.20
2016,04,08,14,25,19.20
2016,04,08,14,26,19.20
2016,04,08,14,27,19.10
2016,04,08,14,28,19.00
2016,04,08,14,29,18.90
2016,04,08,14,30,18.90
2016,04,08,14,31,18.80
2016,04,08,14,32,18.80
2016,04,08,14,33,18.80
2016,04,08,14,34,18.80
2016,04,08,14,35,18.70
2016,04,08,14,36,18.70
2016,04,08,14,37,18.60
2016,04,08,14,38,18.60
2016,04,08,14,39,18.60
2016,04,08,14,40,18.60
2016,04,08,14,41,18.60
2016,04,08,14,42,18.60
2016,04,08,14,43,18.50
2016,04,08,14,44,18.60
2016,04,08,14,45,18.60
2016,04,08,14,46,18.60
2016,04,08,14,47,18.60
2016,04,08,14,48,18.60
2016,04,08,14,49,18.60
2016,04,08,14,50,18.60
2016,04,08,14,51,18.70
2016,04,08,14,52,18.70
2016,04,08,14,53,18.70
2016,04,08,14,54,18.70
2016,04,08,14,55,18.70
2016,04,08,14,56,18.70
2016,04,08,14,57,18.70
2016,04,08,14,58,18.80
2016,04,08,14,59,18.80
2016,04,08,15,00,18.90
2016,04,08,15,01,18.90
2016,04,08,15,02,19.00
2016,04,08,15,03,19.00
2016,04,08,15,04,19.10
2016,04,08,15,05,19.10
2016,04,08,15,06,19.10
2016,04,08,15,07,19.10
2016,04,08,15,08,19.20
2016,04,08,15,09,19.20
2016,04,08,15,10,19.20
2016,04,08,15,11,19.20
2016,04,08,15,12,19.20
2016,04,08,15,13,19.20
2016,04,08,15,14,19.20
2016,04,08,15,15,19.30
2016,04,08,15,16,19.40
2016,04,08,15,17,19.50
2016,04,08,15,18,19.60
2016,04,08,15,19,19.70
2016,04,08,15,20,19.70
2016,04,08,15,21,19.80
2016,04,08,15,22,19.80
2016,04,08,15,23,19.80
2016,04,08,15,24,19.80
2016,04,08,15,25,19.80
2016,04,08,15,26,19.90
2016,04,08,15,27,19.90
2016,04,08,15,28,19.90
2016,04,08,15,29,19.90
2016,04,08,15,30,19.90
2016,04,08,15,31,19.90
2016,04,08,15,32,19.90
2016,04,08,15,33,19.90
2016,04,08,15,34,20.00
2016,04,08,15,35,20.00
2016,04,08,15,36,20.10
2016,04,08,15,37,20.20
2016,04,08,15,38,20.20
2016,04,08,15,39,20.30
2016,04,08,15,40,20.30
2016,04,08,15,41,20.30
2016,04,08,15,42,20.30
2016,04,08,15,43,20.30
2016,04,08,15,44,20.40
2016,04,08,15,45,20.40
2016,04,08,15,46,20.50
2016,04,08,15,47,20.60
2016,04,08,15,48,20.60
2016,04,08,15,49,20.70
2016,04,08,15,50,20.80
2016,04,08,15,51,20.90
2016,04,08,15,52,20.90
2016,04,08,15,53,21.00
2016,04,08,15,54,21.00
2016,04,08,15,55,21.10
2016,04,08,15,56,21.10
2016,04,08,15,57,21.10
2016,04,08,15,58,21.10
2016,04,08,15,59,21.20
2016,04,08,16,00,21.20
2016,04,08,16,01,21.20
2016,04,08,16,02,21.10
2016,04,08,16,03,21.10
2016,04,08,16,04,21.10
2016,04,08,16,05,21.10
2016,04,08,16,06,21.10
2016,04,08,16,07,21.10
2016,04,08,16,08,21.10
2016,04,08,16,09,21.10
2016,04,08,16,10,21.00
2016,04,08,16,11,21.00
2016,04,08,16,12,21.10
2016,04,08,16,13,21.10
2016,04,08,16,14,21.10
2016,04,08,16,15,21.10
2016,04,08,16,16,21.20
2016,04,08,16,17,21.20
2016,04,08,16,18,21.20
2016,04,08,16,19,21.20
2016,04,08,16,20,21.30
2016,04,08,16,21,21.30
2016,04,08,16,22,21.40
2016,04,08,16,23,21.40
2016,04,08,16,24,21.50
2016,04,08,16,25,21.50
2016,04,08,16,26,21.60
2016,04,08,16,27,21.60
2016,04,08,16,28,21.60
2016,04,08,16,29,21.60
2016,04,08,16,30,21.60
2016,04,08,16,31,21.50
2016,04,08,16,32,21.50
2016,04,08,16,33,21.40
2016,04,08,16,34,21.30
2016,04,08,16,35,21.20
2016,04,08,16,36,21.20
2016,04,08,16,37,21.10
2016,04,08,16,38,21.10
2016,04,08,16,39,21.10
2016,04,08,16,40,21.20
2016,04,08,16,41,21.20
2016,04,08,16,42,21.20
2016,04,08,16,43,21.30
2016,04,08,16,44,21.30
2016,04,08,16,45,21.40
2016,04,08,16,46,21.40
2016,04,08,16,47,21.40
2016,04,08,16,48,21.40
2016,04,08,16,49,21.50
2016,04,08,16,50,21.50
2016,04,08,16,51,21.60
2016,04,08,16,52,21.60
2016,04,08,16,53,21.70
2016,04,08,16,54,21.70
2016,04,08,16,55,21.70
2016,04,08,16,56,21.70
2016,04,08,16,57,21.60
2016,04,08,16,58,21.60
2016,04,08,16,59,21.60
2016,04,08,17,00,21.50
2016,04,08,17,01,21.50
2016,04,08,17,02,21.60
2016,04,08,17,03,21.60
2016,04,08,17,04,21.60
2016,04,08,17,05,21.60
2016,04,08,17,06,21.60
2016,04,08,17,07,21.70
2016,04,08,17,08,21.70
2016,04,08,17,09,21.70
2016,04,08,17,10,21.70
2016,04,08,17,11,21.70
2016,04,08,17,12,21.70
2016,04,08,17,13,21.70
2016,04,08,17,14,21.60
2016,04,08,17,15,21.60
2016,04,08,17,16,21.60
2016,04,08,17,17,21.60
2016,04,08,17,18,21.60
2016,04,08,17,19,21.60
2016,04,08,17,20,21.60
2016,04,08,17,21,21.70
2016,04,08,17,22,21.70
2016,04,08,17,23,21.70
2016,04,08,17,24,21.70
2016,04,08,17,25,21.70
2016,04,08,17,26,21.70
2016,04,08,17,27,21.70
2016,04,08,17,28,21.70
2016,04,08,17,29,21.60
2016,04,08,17,30,21.60
2016,04,08,17,31,21.50
2016,04,08,17,32,21.50
2016,04,08,17,33,21.50
2016,04,08,17,34,21.50
2016,04,08,17,35,21.50
2016,04,08,17,36,21.40
2016,04,08,17,37,21.40
2016,04,08,17,38,21.40
2016,04,08,17,39,21.40